Location: Camp Creek
(33.9000°N, 111.8167°W)
Time: 22:15:33
(UTC-07:00)

Cosmos 1656 - Visible Passes

Search period start: 26 March 2015 00:00
Search period end: 05 April 2015 00:00
Orbit: 797 x 851 km, 71.1° (Epoch: 26 March)

Date Brightness Start Highest point End Pass type
(mag) Time Alt. Az. Time Alt. Az. Time Alt. Az.
30 Mar 6.4 05:35:31 10° SSE 05:39:42 22° ESE 05:44:05 10° NE visible
31 Mar 6.4 05:15:42 10° SE 05:19:23 19° E 05:23:20 10° ENE visible
01 Apr 6.5 04:56:02 10° SE 04:59:05 15° E 05:02:27 10° ENE visible
02 Apr 6.6 04:36:37 10° ESE 04:38:47 13° E 04:41:20 10° ENE visible
03 Apr 6.8 04:18:07 10° ESE 04:18:29 10° E 04:19:20 10° E visible
04 Apr 3.8 05:35:29 10° SSW 05:41:10 85° ESE 05:46:54 10° NNE visible
